Location: Newark
(44.2764°N, 5.2753°E)
Time: 00:40:55
(UTC+00:00)

ISS - Pass Details

Date: 24 January 2020
Orbit: 415 x 422 km, 51.6° (Epoch: 22 February)

Event Time Altitude Azimuth Distance (km) Brightness Sun altitude
Rises 18:55:59 0° 269° (W) 2,374 1.5 -24.8°
Reaches altitude 10° 18:58:15 10° 281° (W) 1,509 0.0 -25.2°
Enters shadow 19:00:11 24° 309° (NW) 917 -1.6 -25.5°
